Terminal Aerodrome Forecast
Issued by NWS Raleigh/Durham, NC

Home | Current Version | Previous Version | Text Only | Print | Product List | Glossary On
Versions: 1 2 3 4 5 6 7 8 9 10 11 12 13 14 15 16 17 18 19 20 21 22 23 24 25 26 27 28 29 30 31 32 33 34 35 36 37 38 39 40 41 42 43 44 45 46 47 48 49 50
000
FTUS42 KRAH 051724
TAFRDU
TAF
KRDU 051724Z 0518/0618 05011KT P6SM SCT020 BKN040
      TEMPO 0518/0521 VRB15G25KT 3SM SHRA BKN015
     FM052300 06008KT P6SM SCT035
     FM060400 03007KT P6SM OVC016
     FM060800 02007KT P6SM OVC005=

USA.gov is the U.S. government's official web portal to all federal, state and local government web resources and services.